Home > Weather > Stillwater > Past weeks

Flag for USA Weather for the Past 2 Weeks in Stillwater, Minnesota, USA

Now
57 °F

Sunny.


Feels Like: 54 °F
Forecast: 40 / 60 °F
Wind: 14 mph from East

Location: St. Paul Downtown Holman Field

Current Time: Apr 30, 2016 at 4:22:22 PM

Latest Report: Apr 30, 2016 at 3:53 PM


Visibility: 10 mi

Pressure: 30.06 "Hg

Humidity: 42%

Dew Point: 34 °F

Location of StillwaterLocation

Historic Weather in Stillwater — Graph

°F

Stillwater Temperature Yesterday

Maximum temperature yesterday: 59 °F (at 4:53 PM)
Minimum temperature yesterday: 34 °F (at 4:53 AM)
Average temperature yesterday: 47 °F

High & Low Weather Summary for the Past Weeks

 TemperatureHumidityPressure
High79 °F (Apr 16, 5:53 PM)100% (Apr 29, 4:53 AM)30.30 "Hg (Apr 29, 4:53 AM)
Low34 °F (Apr 29, 4:53 AM)27% (Apr 16, 5:53 PM)29.54 "Hg (Apr 25, 7:53 AM)
Average55 °F69%30.02 "Hg
* Reported Apr 15 2:53 PM — Apr 30 2:53 PM, Stillwater, Weather by CustomWeather, © 2016

Note: Actual official high and low records may vary slightly from our data, if they occured in-between our weather recording intervals... More about our weather records

Advertising

Stillwater Weather History for the Previous 24 Hours

Scroll right to see more
 ConditionsComfort  
Time TempWeatherWind HumidityBarometerVisibility
2:53 PM
Sat, Apr 30
57 °FSunny.20 mph41%30.05 "Hg10 mi
1:53 PM56 °FSunny.13 mph44%30.06 "Hg10 mi
12:53 PM55 °FSunny.10 mph45%30.08 "Hg10 mi
11:53 AM53 °FSunny.18 mph45%30.09 "Hg10 mi
10:53 AM52 °FSunny.14 mph49%30.09 "Hg10 mi
9:53 AM50 °FSunny.13 mph52%30.11 "Hg10 mi
8:53 AM46 °FSunny.10 mph61%30.11 "Hg10 mi
7:53 AM43 °FSunny.10 mph68%30.11 "Hg10 mi
6:53 AM42 °FClear.12 mph71%30.11 "Hg10 mi
5:53 AM42 °FClear.14 mph68%30.10 "Hg10 mi
4:53 AM43 °FClear.No wind62%30.12 "Hg10 mi
3:53 AM44 °FClear.No wind63%30.12 "Hg10 mi
2:53 AM45 °FClear.9 mph63%30.12 "Hg10 mi
1:53 AM48 °FOvercast.9 mph59%30.14 "Hg10 mi
12:53 AM49 °FPassing clouds.7 mph66%30.14 "Hg10 mi
11:53 PM
Fri, Apr 29
50 °FMostly cloudy.3 mph71%30.14 "Hg10 mi
10:53 PM47 °FClear.No wind83%30.13 "Hg10 mi
9:53 PM50 °FClear.No wind74%30.12 "Hg10 mi
8:53 PM51 °FSunny.5 mph66%30.12 "Hg10 mi
7:53 PM54 °FSunny.7 mph57%30.11 "Hg10 mi
6:53 PM59 °FSunny.7 mph42%30.12 "Hg10 mi
5:53 PM59 °FSunny.5 mph41%30.11 "Hg10 mi
4:53 PM59 °FSunny.8 mph41%30.12 "Hg10 mi
Weather by CustomWeather, © 2016

See weather overviewHow to use our weather pages